Time,TemperatureF,DewpointF,PressureIn,WindDirection,WindDirectionDegrees,WindSpeedMPH,WindSpeedGustMPH,Humidity,HourlyPrecipIn,Conditions,Clouds,dailyrainin,SoftwareType,DateUTC
2013-08-16 00:02:00,63.0,62.4,30.15,SE,146,3.0,6.0,98,0.00,,,0.71,meteohub,2013-08-16 05:02:00,
2013-08-16 00:07:00,63.0,62.4,30.15,ESE,122,1.0,6.0,98,0.00,,,0.00,meteohub,2013-08-16 05:07:00,
2013-08-16 00:12:00,62.8,62.2,30.15,SE,127,1.0,5.0,98,0.00,,,0.00,meteohub,2013-08-16 05:12:00,
2013-08-16 00:19:00,62.8,62.2,30.15,SSE,155,1.0,4.0,98,0.00,,,0.00,meteohub,2013-08-16 05:19:00,
2013-08-16 00:24:00,62.8,62.2,30.15,SW,229,0.0,4.0,98,0.00,,,0.00,meteohub,2013-08-16 05:24:00,
2013-08-16 00:29:00,62.8,62.2,30.15,SW,217,0.0,3.0,98,0.00,,,0.00,meteohub,2013-08-16 05:29:00,
2013-08-16 00:35:00,62.8,62.2,30.15,WSW,239,0.0,3.0,98,0.00,,,0.00,meteohub,2013-08-16 05:35:00,
2013-08-16 00:40:00,62.6,62.1,30.15,ESE,117,0.0,2.0,98,0.00,,,0.00,meteohub,2013-08-16 05:40:00,
2013-08-16 00:45:00,62.8,62.2,30.15,SE,133,0.0,2.0,98,0.00,,,0.00,meteohub,2013-08-16 05:45:00,
2013-08-16 00:50:00,62.8,62.2,30.15,SE,124,0.0,1.0,98,0.00,,,0.00,meteohub,2013-08-16 05:50:00,
2013-08-16 00:55:00,62.8,62.2,30.15,ESE,105,3.0,0.0,98,0.00,,,0.00,meteohub,2013-08-16 05:55:00,
2013-08-16 01:00:00,62.8,62.2,30.15,ESE,122,1.0,4.0,98,0.00,,,0.00,meteohub,2013-08-16 06:00:00,
2013-08-16 01:05:00,62.8,62.2,30.15,SE,135,1.0,4.0,98,0.00,,,0.00,meteohub,2013-08-16 06:05:00,
2013-08-16 01:10:00,62.8,62.2,30.15,SSE,166,0.0,4.0,98,0.00,,,0.00,meteohub,2013-08-16 06:10:00,
2013-08-16 01:15:00,62.6,62.1,30.16,SE,140,2.0,3.0,98,0.00,,,0.00,meteohub,2013-08-16 06:15:00,
2013-08-16 01:20:00,62.6,62.1,30.16,SSE,149,2.0,4.0,98,0.00,,,0.00,meteohub,2013-08-16 06:20:00,
2013-08-16 01:25:00,62.6,62.1,30.16,SSE,150,2.0,4.0,98,0.00,,,0.00,meteohub,2013-08-16 06:25:00,
2013-08-16 01:30:00,62.8,62.2,30.16,SE,146,1.0,4.0,98,0.00,,,0.00,meteohub,2013-08-16 06:30:00,
2013-08-16 01:35:00,62.6,62.1,30.16,SSE,148,3.0,6.0,98,0.00,,,0.00,meteohub,2013-08-16 06:35:00,
2013-08-16 01:40:00,62.6,62.1,30.16,SSE,161,2.0,6.0,98,0.00,,,0.00,meteohub,2013-08-16 06:40:00,
2013-08-16 01:45:00,62.6,62.1,30.16,East,101,7.0,7.0,98,0.00,,,0.00,meteohub,2013-08-16 06:45:00,
2013-08-16 01:50:00,62.4,61.9,30.16,SSE,152,2.0,4.0,98,0.00,,,0.00,meteohub,2013-08-16 06:50:00,
2013-08-16 01:55:00,62.4,61.9,30.16,SSW,203,1.0,7.0,98,0.00,,,0.00,meteohub,2013-08-16 06:55:00,
2013-08-16 02:00:00,62.4,61.9,30.15,SE,124,5.0,7.0,98,0.00,,,0.00,meteohub,2013-08-16 07:00:00,
2013-08-16 02:05:00,62.2,61.7,30.15,SSE,162,0.0,5.0,98,0.00,,,0.00,meteohub,2013-08-16 07:05:00,
2013-08-16 02:10:00,62.2,61.7,30.15,SSE,149,0.0,6.0,98,0.00,,,0.00,meteohub,2013-08-16 07:10:00,
2013-08-16 02:15:00,62.2,61.7,30.15,South,184,0.0,6.0,98,0.00,,,0.00,meteohub,2013-08-16 07:15:00,
2013-08-16 02:20:00,62.1,61.5,30.16,SE,142,2.0,5.0,98,0.00,,,0.00,meteohub,2013-08-16 07:20:00,
2013-08-16 02:25:00,62.1,61.5,30.15,SE,127,2.0,4.0,98,0.00,,,0.00,meteohub,2013-08-16 07:25:00,
2013-08-16 02:30:00,62.1,61.5,30.15,SSE,149,2.0,4.0,98,0.00,,,0.00,meteohub,2013-08-16 07:30:00,
2013-08-16 02:35:00,62.1,61.5,30.15,SE,127,1.0,4.0,98,0.00,,,0.00,meteohub,2013-08-16 07:35:00,
2013-08-16 02:40:00,62.1,61.5,30.15,ESE,108,3.0,4.0,98,0.00,,,0.00,meteohub,2013-08-16 07:40:00,
2013-08-16 02:45:00,61.9,61.3,30.15,SSE,152,0.0,4.0,98,0.00,,,0.00,meteohub,2013-08-16 07:45:00,
2013-08-16 02:50:00,61.9,61.3,30.15,SSE,165,1.0,4.0,98,0.00,,,0.00,meteohub,2013-08-16 07:50:00,
2013-08-16 02:55:00,61.9,61.3,30.15,SE,127,2.0,4.0,98,0.00,,,0.00,meteohub,2013-08-16 07:55:00,
2013-08-16 03:00:00,61.9,61.3,30.15,ESE,120,4.0,5.0,98,0.00,,,0.00,meteohub,2013-08-16 08:00:00,
2013-08-16 03:05:00,61.9,61.3,30.15,ESE,112,4.0,5.0,98,0.00,,,0.00,meteohub,2013-08-16 08:05:00,
2013-08-16 03:10:00,61.7,61.2,30.15,SE,124,2.0,5.0,98,0.00,,,0.00,meteohub,2013-08-16 08:10:00,
2013-08-16 03:15:00,61.9,61.3,30.16,SE,131,1.0,5.0,98,0.00,,,0.00,meteohub,2013-08-16 08:15:00,
2013-08-16 03:20:00,61.7,61.2,30.15,South,170,0.0,5.0,98,0.00,,,0.00,meteohub,2013-08-16 08:20:00,
2013-08-16 03:25:00,61.7,61.2,30.15,ESE,103,2.0,3.0,98,0.00,,,0.00,meteohub,2013-08-16 08:25:00,
2013-08-16 03:30:00,61.9,61.3,30.15,SE,124,2.0,3.0,98,0.00,,,0.00,meteohub,2013-08-16 08:30:00,
2013-08-16 03:35:00,61.7,61.2,30.15,ESE,113,3.0,3.0,98,0.00,,,0.00,meteohub,2013-08-16 08:35:00,
2013-08-16 03:40:00,61.9,61.3,30.15,SSE,148,0.0,3.0,98,0.00,,,0.00,meteohub,2013-08-16 08:40:00,
2013-08-16 03:45:00,61.7,61.2,30.16,SSE,149,0.0,3.0,98,0.00,,,0.00,meteohub,2013-08-16 08:45:00,
2013-08-16 03:50:00,61.7,61.2,30.16,SSE,150,0.0,3.0,98,0.00,,,0.00,meteohub,2013-08-16 08:50:00,
2013-08-16 03:55:00,61.7,61.2,30.16,SSE,149,0.0,2.0,98,0.00,,,0.00,meteohub,2013-08-16 08:55:00,
2013-08-16 04:00:00,61.7,61.2,30.16,SSE,149,0.0,0.0,98,0.00,,,0.00,meteohub,2013-08-16 09:00:00,
2013-08-16 04:05:00,61.7,61.2,30.16,SSE,149,0.0,0.0,98,0.00,,,0.00,meteohub,2013-08-16 09:05:00,
2013-08-16 04:10:00,61.7,61.2,30.16,West,263,0.0,0.0,98,0.00,,,0.00,meteohub,2013-08-16 09:10:00,
2013-08-16 04:15:00,61.7,61.2,30.15,SSE,150,0.0,0.0,98,0.00,,,0.00,meteohub,2013-08-16 09:15:00,
2013-08-16 04:20:00,61.9,61.3,30.15,SSE,149,0.0,0.0,98,0.00,,,0.00,meteohub,2013-08-16 09:20:00,
2013-08-16 04:25:00,61.9,61.3,30.15,ESE,105,3.0,0.0,98,0.00,,,0.00,meteohub,2013-08-16 09:25:00,
2013-08-16 04:30:00,61.9,61.3,30.15,ESE,103,1.0,5.0,98,0.00,,,0.00,meteohub,2013-08-16 09:30:00,
2013-08-16 04:35:00,61.9,61.3,30.15,SSE,152,1.0,5.0,98,0.00,,,0.00,meteohub,2013-08-16 09:35:00,
2013-08-16 04:40:00,61.9,61.3,30.15,SE,127,1.0,5.0,98,0.00,,,0.00,meteohub,2013-08-16 09:40:00,
2013-08-16 04:45:00,61.9,61.3,30.15,ESE,110,1.0,2.0,98,0.00,,,0.00,meteohub,2013-08-16 09:45:00,
2013-08-16 04:50:00,62.1,61.5,30.15,ESE,103,1.0,2.0,98,0.00,,,0.00,meteohub,2013-08-16 09:50:00,
2013-08-16 04:55:00,62.1,61.5,30.15,ESE,106,2.0,2.0,98,0.00,,,0.00,meteohub,2013-08-16 09:55:00,
2013-08-16 05:00:00,62.1,61.5,30.15,ESE,113,2.0,3.0,98,0.00,,,0.00,meteohub,2013-08-16 10:00:00,
2013-08-16 05:05:00,62.1,61.5,30.15,East,101,1.0,4.0,98,0.00,,,0.00,meteohub,2013-08-16 10:05:00,
2013-08-16 05:10:00,62.2,61.7,30.15,ESE,105,2.0,4.0,98,0.00,,,0.00,meteohub,2013-08-16 10:10:00,
2013-08-16 05:15:00,62.2,61.7,30.16,East,86,3.0,4.0,98,0.00,,,0.00,meteohub,2013-08-16 10:15:00,
2013-08-16 05:20:00,62.2,61.7,30.16,East,85,2.0,4.0,98,0.00,,,0.00,meteohub,2013-08-16 10:20:00,
2013-08-16 05:25:00,62.2,61.7,30.16,NE,44,2.0,4.0,98,0.00,,,0.00,meteohub,2013-08-16 10:25:00,
2013-08-16 05:31:00,62.2,61.7,30.16,East,79,1.0,4.0,98,0.00,,,0.00,meteohub,2013-08-16 10:31:00,
2013-08-16 05:36:00,62.2,61.7,30.16,East,80,0.0,4.0,98,0.00,,,0.00,meteohub,2013-08-16 10:36:00,
2013-08-16 05:41:00,62.2,61.7,30.16,ENE,75,0.0,4.0,98,0.00,,,0.00,meteohub,2013-08-16 10:41:00,
2013-08-16 05:46:00,62.4,61.9,30.16,East,79,1.0,3.0,98,0.00,,,0.00,meteohub,2013-08-16 10:46:00,
2013-08-16 05:51:00,62.4,61.9,30.17,ESE,117,1.0,3.0,98,0.00,,,0.00,meteohub,2013-08-16 10:51:00,
2013-08-16 05:56:00,62.4,61.9,30.16,East,92,1.0,2.0,98,0.00,,,0.00,meteohub,2013-08-16 10:56:00,
2013-08-16 06:01:00,62.6,62.1,30.16,East,97,2.0,2.0,98,0.00,,,0.00,meteohub,2013-08-16 11:01:00,
2013-08-16 06:06:00,62.8,62.2,30.17,ESE,117,2.0,3.0,98,0.00,,,0.00,meteohub,2013-08-16 11:06:00,
2013-08-16 06:11:00,63.0,62.4,30.17,East,82,4.0,4.0,98,0.00,,,0.00,meteohub,2013-08-16 11:11:00,
2013-08-16 06:16:00,62.8,62.2,30.17,East,84,4.0,4.0,98,0.00,,,0.00,meteohub,2013-08-16 11:16:00,
2013-08-16 06:21:00,63.0,62.4,30.17,East,90,5.0,6.0,98,0.00,,,0.00,meteohub,2013-08-16 11:21:00,
2013-08-16 06:26:00,63.0,62.4,30.17,ENE,77,4.0,6.0,98,0.00,,,0.00,meteohub,2013-08-16 11:26:00,
2013-08-16 06:31:00,63.0,62.4,30.18,East,82,6.0,6.0,98,0.00,,,0.01,meteohub,2013-08-16 11:31:00,
2013-08-16 06:36:00,63.0,62.4,30.18,ENE,75,6.0,7.0,98,0.01,,,0.01,meteohub,2013-08-16 11:36:00,
2013-08-16 06:41:00,63.0,62.4,30.18,East,87,4.0,7.0,98,0.01,,,0.01,meteohub,2013-08-16 11:41:00,
2013-08-16 06:46:00,63.0,62.4,30.18,ENE,62,4.0,7.0,98,0.01,,,0.01,meteohub,2013-08-16 11:46:00,
2013-08-16 06:51:00,63.1,62.6,30.19,WNW,293,4.0,7.0,98,0.01,,,0.01,meteohub,2013-08-16 11:51:00,
2013-08-16 06:56:00,63.0,62.4,30.18,ESE,111,2.0,7.0,98,0.01,,,0.01,meteohub,2013-08-16 11:56:00,
2013-08-16 07:01:00,63.1,62.6,30.17,ESE,114,6.0,7.0,98,0.01,,,0.01,meteohub,2013-08-16 12:01:00,
2013-08-16 07:06:00,63.1,62.6,30.18,East,94,4.0,8.0,98,0.01,,,0.01,meteohub,2013-08-16 12:06:00,
2013-08-16 07:11:00,63.3,62.8,30.18,SE,131,3.0,8.0,98,0.01,,,0.01,meteohub,2013-08-16 12:11:00,
2013-08-16 07:16:00,63.3,62.8,30.19,East,86,3.0,8.0,98,0.01,,,0.01,meteohub,2013-08-16 12:16:00,
2013-08-16 07:21:00,63.3,62.8,30.19,East,80,2.0,8.0,98,0.00,,,0.01,meteohub,2013-08-16 12:21:00,
2013-08-16 07:26:00,63.3,62.8,30.20,WSW,239,1.0,8.0,98,0.00,,,0.01,meteohub,2013-08-16 12:26:00,
2013-08-16 07:31:00,63.5,63.0,30.21,West,273,1.0,8.0,98,0.00,,,0.01,meteohub,2013-08-16 12:31:00,
2013-08-16 07:36:00,63.7,63.1,30.21,NW,313,2.0,4.0,98,0.00,,,0.01,meteohub,2013-08-16 12:36:00,
2013-08-16 07:41:00,63.7,63.1,30.22,WNW,300,4.0,4.0,98,0.00,,,0.01,meteohub,2013-08-16 12:41:00,
2013-08-16 07:46:00,63.9,63.3,30.21,NW,304,1.0,5.0,98,0.00,,,0.01,meteohub,2013-08-16 12:46:00,
2013-08-16 07:51:00,64.0,63.1,30.21,West,280,0.0,5.0,97,0.00,,,0.01,meteohub,2013-08-16 12:51:00,
2013-08-16 07:56:00,64.0,63.1,30.20,South,185,0.0,5.0,97,0.00,,,0.01,meteohub,2013-08-16 12:56:00,
2013-08-16 08:01:00,64.2,63.1,30.20,East,79,4.0,5.0,96,0.00,,,0.01,meteohub,2013-08-16 13:01:00,
2013-08-16 08:06:00,64.4,63.3,30.21,ENE,65,2.0,6.0,96,0.00,,,0.01,meteohub,2013-08-16 13:06:00,
2013-08-16 08:11:00,64.6,63.1,30.21,East,84,4.0,6.0,95,0.00,,,0.01,meteohub,2013-08-16 13:11:00,
2013-08-16 08:17:00,64.6,62.8,30.21,ENE,74,2.0,6.0,94,0.00,,,0.01,meteohub,2013-08-16 13:17:00,
2013-08-16 08:22:00,64.8,63.3,30.22,ESE,120,2.0,6.0,95,0.00,,,0.01,meteohub,2013-08-16 13:22:00,
2013-08-16 08:27:00,64.8,63.0,30.22,ESE,113,2.0,5.0,94,0.00,,,0.01,meteohub,2013-08-16 13:27:00,
2013-08-16 08:32:00,64.8,63.0,30.22,ESE,105,2.0,6.0,94,0.00,,,0.01,meteohub,2013-08-16 13:32:00,
2013-08-16 08:37:00,64.9,62.8,30.22,ENE,72,3.0,6.0,93,0.00,,,0.01,meteohub,2013-08-16 13:37:00,
2013-08-16 08:42:00,64.9,62.8,30.22,ENE,65,2.0,6.0,93,0.00,,,0.01,meteohub,2013-08-16 13:42:00,
2013-08-16 08:47:00,65.1,63.0,30.22,ENE,65,2.0,5.0,93,0.00,,,0.01,meteohub,2013-08-16 13:47:00,
2013-08-16 08:52:00,65.5,63.3,30.22,East,83,5.0,5.0,93,0.00,,,0.01,meteohub,2013-08-16 13:52:00,
2013-08-16 08:57:00,65.5,63.1,30.22,ENE,71,2.0,6.0,92,0.00,,,0.01,meteohub,2013-08-16 13:57:00,
2013-08-16 09:02:00,65.5,63.1,30.22,ENE,76,5.0,6.0,92,0.00,,,0.01,meteohub,2013-08-16 14:02:00,
2013-08-16 09:07:00,65.3,63.1,30.22,East,94,2.0,7.0,93,0.00,,,0.01,meteohub,2013-08-16 14:07:00,
2013-08-16 09:12:00,65.5,63.1,30.22,ENE,78,5.0,7.0,92,0.00,,,0.01,meteohub,2013-08-16 14:12:00,
2013-08-16 09:17:00,65.1,62.8,30.22,ENE,63,3.0,7.0,92,0.00,,,0.01,meteohub,2013-08-16 14:17:00,
2013-08-16 09:22:00,65.5,63.1,30.22,East,87,3.0,7.0,92,0.00,,,0.01,meteohub,2013-08-16 14:22:00,
2013-08-16 09:27:00,65.7,63.3,30.22,East,84,7.0,8.0,92,0.00,,,0.01,meteohub,2013-08-16 14:27:00,
2013-08-16 09:32:00,65.7,63.0,30.22,ENE,70,5.0,9.0,91,0.00,,,0.01,meteohub,2013-08-16 14:32:00,
2013-08-16 09:37:00,65.8,63.5,30.22,East,101,5.0,9.0,92,0.00,,,0.01,meteohub,2013-08-16 14:37:00,
2013-08-16 09:42:00,66.0,63.7,30.22,East,84,6.0,9.0,92,0.00,,,0.01,meteohub,2013-08-16 14:42:00,
2013-08-16 09:47:00,65.8,63.1,30.22,ESE,119,3.0,11.0,91,0.00,,,0.01,meteohub,2013-08-16 14:47:00,
2013-08-16 09:52:00,65.8,63.5,30.23,East,91,5.0,11.0,92,0.00,,,0.01,meteohub,2013-08-16 14:52:00,
2013-08-16 09:57:00,65.8,63.5,30.23,East,96,6.0,11.0,92,0.00,,,0.01,meteohub,2013-08-16 14:57:00,
2013-08-16 10:02:00,66.0,63.3,30.23,ESE,122,5.0,10.0,91,0.00,,,0.01,meteohub,2013-08-16 15:02:00,
2013-08-16 10:07:00,66.2,63.5,30.24,East,95,6.0,9.0,91,0.00,,,0.01,meteohub,2013-08-16 15:07:00,
2013-08-16 10:12:00,66.4,63.7,30.24,East,96,4.0,8.0,91,0.00,,,0.01,meteohub,2013-08-16 15:12:00,
2013-08-16 10:17:00,66.6,63.5,30.24,East,92,7.0,8.0,90,0.00,,,0.01,meteohub,2013-08-16 15:17:00,
2013-08-16 10:22:00,66.9,63.9,30.24,East,97,9.0,10.0,90,0.00,,,0.01,meteohub,2013-08-16 15:22:00,
2013-08-16 10:27:00,66.9,63.5,30.24,East,88,9.0,11.0,89,0.00,,,0.01,meteohub,2013-08-16 15:27:00,
2013-08-16 10:32:00,66.9,63.9,30.24,East,97,6.0,12.0,90,0.00,,,0.01,meteohub,2013-08-16 15:32:00,
2013-08-16 10:37:00,66.9,63.9,30.23,ESE,119,6.0,12.0,90,0.00,,,0.01,meteohub,2013-08-16 15:37:00,
2013-08-16 10:42:00,67.3,63.9,30.23,SE,136,4.0,12.0,89,0.00,,,0.01,meteohub,2013-08-16 15:42:00,
2013-08-16 10:47:00,67.8,63.5,30.24,ESE,105,7.0,9.0,86,0.00,,,0.01,meteohub,2013-08-16 15:47:00,
2013-08-16 10:52:00,67.8,63.9,30.23,ESE,113,4.0,12.0,87,0.00,,,0.01,meteohub,2013-08-16 15:52:00,
2013-08-16 10:57:00,68.2,63.9,30.23,ESE,103,8.0,12.0,86,0.00,,,0.01,meteohub,2013-08-16 15:57:00,
2013-08-16 11:02:00,68.2,63.5,30.23,SE,124,2.0,12.0,85,0.00,,,0.01,meteohub,2013-08-16 16:02:00,
2013-08-16 11:07:00,68.5,64.2,30.23,ESE,105,10.0,10.0,86,0.00,,,0.01,meteohub,2013-08-16 16:07:00,
2013-08-16 11:12:00,69.1,64.4,30.23,SE,139,4.0,12.0,85,0.00,,,0.01,meteohub,2013-08-16 16:12:00,
2013-08-16 11:17:00,69.3,63.5,30.24,ESE,111,7.0,12.0,82,0.00,,,0.01,meteohub,2013-08-16 16:17:00,
2013-08-16 11:22:00,68.7,63.7,30.24,ESE,116,3.0,13.0,84,0.00,,,0.01,meteohub,2013-08-16 16:22:00,
2013-08-16 11:27:00,69.1,63.7,30.24,ESE,115,5.0,13.0,83,0.00,,,0.01,meteohub,2013-08-16 16:27:00,
2013-08-16 11:32:00,69.3,64.2,30.24,ESE,109,7.0,12.0,84,0.00,,,0.01,meteohub,2013-08-16 16:32:00,
2013-08-16 11:37:00,70.0,64.6,30.23,ESE,115,9.0,12.0,83,0.00,,,0.01,meteohub,2013-08-16 16:37:00,
2013-08-16 11:42:00,70.0,64.6,30.23,ESE,113,3.0,11.0,83,0.00,,,0.01,meteohub,2013-08-16 16:42:00,
2013-08-16 11:47:00,70.3,64.2,30.23,East,96,6.0,13.0,81,0.00,,,0.01,meteohub,2013-08-16 16:47:00,
2013-08-16 11:52:00,70.3,64.9,30.23,East,96,8.0,13.0,83,0.00,,,0.01,meteohub,2013-08-16 16:52:00,
2013-08-16 11:57:00,70.5,64.0,30.23,East,89,12.0,13.0,80,0.00,,,0.01,meteohub,2013-08-16 16:57:00,
2013-08-16 12:02:00,70.2,64.0,30.23,East,101,6.0,13.0,81,0.00,,,0.01,meteohub,2013-08-16 17:02:00,
2013-08-16 12:07:00,70.9,64.8,30.23,ENE,70,10.0,13.0,81,0.00,,,0.01,meteohub,2013-08-16 17:07:00,
2013-08-16 12:12:00,71.1,64.9,30.23,ENE,76,6.0,13.0,81,0.00,,,0.01,meteohub,2013-08-16 17:12:00,
2013-08-16 12:17:00,72.0,65.1,30.23,SSW,209,2.0,10.0,79,0.00,,,0.01,meteohub,2013-08-16 17:17:00,
2013-08-16 12:22:00,72.1,64.9,30.23,ENE,68,5.0,10.0,78,0.00,,,0.01,meteohub,2013-08-16 17:22:00,
2013-08-16 12:27:00,72.1,65.3,30.23,East,85,7.0,9.0,79,0.00,,,0.01,meteohub,2013-08-16 17:27:00,
2013-08-16 12:32:00,72.3,63.9,30.23,East,89,5.0,10.0,75,0.00,,,0.01,meteohub,2013-08-16 17:32:00,
2013-08-16 12:37:00,72.7,64.8,30.22,ESE,105,3.0,10.0,76,0.00,,,0.01,meteohub,2013-08-16 17:37:00,
2013-08-16 12:42:00,73.0,64.6,30.23,ENE,64,4.0,10.0,75,0.00,,,0.01,meteohub,2013-08-16 17:42:00,
2013-08-16 12:47:00,73.9,64.8,30.22,East,100,5.0,10.0,73,0.00,,,0.01,meteohub,2013-08-16 17:47:00,
2013-08-16 12:52:00,73.8,64.9,30.22,SSE,155,3.0,12.0,74,0.00,,,0.01,meteohub,2013-08-16 17:52:00,
2013-08-16 12:57:00,73.9,64.8,30.22,ESE,110,5.0,12.0,73,0.00,,,0.01,meteohub,2013-08-16 17:57:00,
2013-08-16 13:02:00,74.3,64.2,30.22,SE,129,6.0,12.0,71,0.00,,,0.01,meteohub,2013-08-16 18:02:00,
2013-08-16 13:07:00,73.9,63.9,30.22,ESE,116,6.0,12.0,71,0.00,,,0.01,meteohub,2013-08-16 18:07:00,
2013-08-16 13:12:00,73.9,65.1,30.22,ESE,106,2.0,12.0,74,0.00,,,0.01,meteohub,2013-08-16 18:12:00,
2013-08-16 13:17:00,73.9,64.4,30.22,ESE,113,5.0,12.0,72,0.00,,,0.01,meteohub,2013-08-16 18:17:00,
2013-08-16 13:22:00,74.5,65.3,30.22,ESE,103,7.0,10.0,73,0.00,,,0.01,meteohub,2013-08-16 18:22:00,
2013-08-16 13:27:00,74.5,64.9,30.22,SE,142,5.0,11.0,72,0.00,,,0.01,meteohub,2013-08-16 18:27:00,
2013-08-16 13:32:00,75.6,65.5,30.22,SE,143,2.0,11.0,71,0.00,,,0.01,meteohub,2013-08-16 18:32:00,
2013-08-16 13:37:00,76.5,65.5,30.21,SE,133,1.0,11.0,69,0.00,,,0.01,meteohub,2013-08-16 18:37:00,
2013-08-16 13:42:00,77.2,65.8,30.21,SE,128,3.0,8.0,68,0.00,,,0.01,meteohub,2013-08-16 18:42:00,
2013-08-16 13:47:00,76.3,64.0,30.22,SE,132,2.0,8.0,66,0.00,,,0.01,meteohub,2013-08-16 18:47:00,
2013-08-16 13:52:00,75.9,64.9,30.21,SE,128,0.0,9.0,69,0.00,,,0.01,meteohub,2013-08-16 18:52:00,
2013-08-16 13:57:00,75.6,63.9,30.21,SE,133,7.0,12.0,67,0.00,,,0.01,meteohub,2013-08-16 18:57:00,
2013-08-16 14:02:00,75.4,64.9,30.21,SE,134,3.0,12.0,70,0.00,,,0.01,meteohub,2013-08-16 19:02:00,
2013-08-16 14:07:00,75.9,64.2,30.21,East,91,1.0,12.0,67,0.00,,,0.01,meteohub,2013-08-16 19:07:00,
2013-08-16 14:12:00,76.5,64.2,30.21,East,96,5.0,11.0,66,0.00,,,0.01,meteohub,2013-08-16 19:12:00,
2013-08-16 14:17:00,76.6,65.3,30.20,SSW,200,1.0,11.0,68,0.00,,,0.01,meteohub,2013-08-16 19:17:00,
2013-08-16 14:22:00,77.9,64.8,30.20,SSE,167,9.0,11.0,64,0.00,,,0.01,meteohub,2013-08-16 19:22:00,
2013-08-16 14:27:00,77.7,64.6,30.20,SE,124,6.0,11.0,64,0.00,,,0.01,meteohub,2013-08-16 19:27:00,
2013-08-16 14:32:00,78.1,64.9,30.20,SE,129,3.0,11.0,64,0.00,,,0.01,meteohub,2013-08-16 19:32:00,
2013-08-16 14:37:00,78.8,64.8,30.20,SSE,152,2.0,11.0,62,0.00,,,0.01,meteohub,2013-08-16 19:37:00,
2013-08-16 14:42:00,79.3,65.1,30.20,SSE,155,5.0,10.0,62,0.00,,,0.01,meteohub,2013-08-16 19:42:00,
2013-08-16 14:47:00,78.4,64.4,30.20,ESE,110,7.0,8.0,62,0.00,,,0.01,meteohub,2013-08-16 19:47:00,
2013-08-16 14:52:00,77.9,64.2,30.20,East,101,4.0,11.0,63,0.00,,,0.01,meteohub,2013-08-16 19:52:00,
2013-08-16 14:57:00,77.5,64.4,30.19,East,99,3.0,11.0,64,0.00,,,0.01,meteohub,2013-08-16 19:57:00,
2013-08-16 15:02:00,77.5,64.4,30.19,ESE,106,2.0,10.0,64,0.00,,,0.01,meteohub,2013-08-16 20:02:00,
2013-08-16 15:07:00,77.5,64.4,30.19,East,82,4.0,10.0,64,0.00,,,0.01,meteohub,2013-08-16 20:07:00,
2013-08-16 15:12:00,78.3,65.5,30.19,East,101,8.0,8.0,65,0.00,,,0.01,meteohub,2013-08-16 20:12:00,
2013-08-16 15:17:00,78.4,64.8,30.19,East,89,7.0,10.0,63,0.00,,,0.01,meteohub,2013-08-16 20:17:00,
2013-08-16 15:22:00,78.4,63.9,30.19,East,96,6.0,11.0,61,0.00,,,0.01,meteohub,2013-08-16 20:22:00,
2013-08-16 15:27:00,78.1,64.4,30.19,SE,146,3.0,13.0,63,0.00,,,0.01,meteohub,2013-08-16 20:27:00,
2013-08-16 15:32:00,77.7,64.0,30.19,ESE,119,4.0,13.0,63,0.00,,,0.01,meteohub,2013-08-16 20:32:00,
2013-08-16 15:38:00,77.5,64.4,30.19,SE,130,4.0,13.0,64,0.00,,,0.01,meteohub,2013-08-16 20:38:00,
2013-08-16 15:43:00,77.7,64.0,30.19,ESE,115,9.0,12.0,63,0.00,,,0.01,meteohub,2013-08-16 20:43:00,
2013-08-16 15:48:00,77.9,64.8,30.19,ESE,105,6.0,10.0,64,0.00,,,0.01,meteohub,2013-08-16 20:48:00,
2013-08-16 15:53:00,77.7,64.0,30.19,East,82,2.0,10.0,63,0.00,,,0.01,meteohub,2013-08-16 20:53:00,
2013-08-16 15:58:00,77.7,64.6,30.19,ESE,119,4.0,10.0,64,0.00,,,0.01,meteohub,2013-08-16 20:58:00,
2013-08-16 16:03:00,78.3,64.6,30.19,SE,124,5.0,10.0,63,0.00,,,0.01,meteohub,2013-08-16 21:03:00,
2013-08-16 16:08:00,78.6,64.0,30.19,ESE,118,10.0,10.0,61,0.00,,,0.01,meteohub,2013-08-16 21:08:00,
2013-08-16 16:13:00,78.6,63.1,30.19,SE,124,5.0,11.0,59,0.00,,,0.01,meteohub,2013-08-16 21:13:00,
2013-08-16 16:18:00,79.0,63.9,30.19,East,92,3.0,11.0,60,0.00,,,0.01,meteohub,2013-08-16 21:18:00,
2013-08-16 16:23:00,79.2,63.7,30.19,ESE,113,6.0,11.0,59,0.00,,,0.01,meteohub,2013-08-16 21:23:00,
2013-08-16 16:28:00,79.3,64.2,30.19,SE,136,9.0,10.0,60,0.00,,,0.01,meteohub,2013-08-16 21:28:00,
2013-08-16 16:33:00,79.7,64.6,30.19,SE,138,5.0,12.0,60,0.00,,,0.01,meteohub,2013-08-16 21:33:00,
2013-08-16 16:38:00,79.5,63.9,30.19,ENE,77,5.0,12.0,59,0.00,,,0.01,meteohub,2013-08-16 21:38:00,
2013-08-16 16:43:00,79.7,64.6,30.19,SE,143,5.0,12.0,60,0.00,,,0.01,meteohub,2013-08-16 21:43:00,
2013-08-16 16:48:00,79.9,64.2,30.19,SW,222,4.0,10.0,59,0.00,,,0.01,meteohub,2013-08-16 21:48:00,
2013-08-16 16:53:00,79.7,64.6,30.19,ESE,103,8.0,11.0,60,0.00,,,0.01,meteohub,2013-08-16 21:53:00,
2013-08-16 16:58:00,79.3,64.2,30.19,NE,53,6.0,11.0,60,0.00,,,0.01,meteohub,2013-08-16 21:58:00,
2013-08-16 17:03:00,79.3,64.8,30.19,East,94,9.0,12.0,61,0.00,,,0.01,meteohub,2013-08-16 22:03:00,
2013-08-16 17:08:00,79.2,64.0,30.19,ESE,121,6.0,13.0,60,0.00,,,0.01,meteohub,2013-08-16 22:08:00,
2013-08-16 17:13:00,79.0,63.9,30.19,ESE,110,8.0,14.0,60,0.00,,,0.01,meteohub,2013-08-16 22:13:00,
2013-08-16 17:18:00,79.0,63.9,30.19,ESE,102,9.0,14.0,60,0.00,,,0.01,meteohub,2013-08-16 22:18:00,
2013-08-16 17:23:00,79.2,63.7,30.19,SE,131,6.0,14.0,59,0.00,,,0.01,meteohub,2013-08-16 22:23:00,
2013-08-16 17:28:00,79.9,64.2,30.19,ESE,106,3.0,13.0,59,0.00,,,0.01,meteohub,2013-08-16 22:28:00,
2013-08-16 17:33:00,79.5,63.9,30.19,East,90,9.0,13.0,59,0.00,,,0.01,meteohub,2013-08-16 22:33:00,
2013-08-16 17:38:00,79.3,64.2,30.19,East,96,2.0,10.0,60,0.00,,,0.01,meteohub,2013-08-16 22:38:00,
2013-08-16 17:44:00,79.7,64.0,30.19,ESE,102,8.0,13.0,59,0.00,,,0.01,meteohub,2013-08-16 22:44:00,
2013-08-16 17:49:00,79.7,64.6,30.19,ESE,103,9.0,13.0,60,0.00,,,0.01,meteohub,2013-08-16 22:49:00,
2013-08-16 17:54:00,79.0,63.9,30.19,East,89,15.0,15.0,60,0.00,,,0.01,meteohub,2013-08-16 22:54:00,
2013-08-16 17:59:00,78.4,63.9,30.19,East,92,9.0,15.0,61,0.00,,,0.01,meteohub,2013-08-16 22:59:00,
2013-08-16 18:04:00,78.3,63.7,30.19,East,84,6.0,16.0,61,0.00,,,0.01,meteohub,2013-08-16 23:04:00,
2013-08-16 18:09:00,78.1,64.0,30.19,East,96,8.0,16.0,62,0.00,,,0.01,meteohub,2013-08-16 23:09:00,
2013-08-16 18:14:00,78.1,64.0,30.19,East,84,9.0,15.0,62,0.00,,,0.01,meteohub,2013-08-16 23:14:00,
2013-08-16 18:19:00,77.9,64.2,30.20,East,83,8.0,14.0,63,0.00,,,0.01,meteohub,2013-08-16 23:19:00,
2013-08-16 18:24:00,77.9,64.8,30.20,SSE,158,4.0,14.0,64,0.00,,,0.01,meteohub,2013-08-16 23:24:00,
2013-08-16 18:29:00,77.7,64.0,30.20,ESE,105,8.0,11.0,63,0.00,,,0.01,meteohub,2013-08-16 23:29:00,
2013-08-16 18:34:00,77.5,63.9,30.20,East,86,8.0,12.0,63,0.00,,,0.01,meteohub,2013-08-16 23:34:00,
2013-08-16 18:39:00,77.5,63.9,30.20,ESE,103,6.0,12.0,63,0.00,,,0.01,meteohub,2013-08-16 23:39:00,
2013-08-16 18:44:00,77.5,63.9,30.19,East,92,7.0,12.0,63,0.00,,,0.01,meteohub,2013-08-16 23:44:00,
2013-08-16 18:50:00,77.9,64.2,30.19,East,86,6.0,11.0,63,0.00,,,0.01,meteohub,2013-08-16 23:50:00,
2013-08-16 18:55:00,78.1,64.4,30.19,East,97,5.0,10.0,63,0.00,,,0.01,meteohub,2013-08-16 23:55:00,
2013-08-16 19:00:00,78.1,64.0,30.19,ESE,112,7.0,9.0,62,0.00,,,0.01,meteohub,2013-08-17 00:00:00,
2013-08-16 19:05:00,78.1,64.0,30.19,ESE,109,4.0,9.0,62,0.00,,,0.01,meteohub,2013-08-17 00:05:00,
2013-08-16 19:10:00,78.1,64.0,30.19,ENE,73,9.0,9.0,62,0.00,,,0.01,meteohub,2013-08-17 00:10:00,
2013-08-16 19:15:00,77.9,64.8,30.19,East,92,9.0,12.0,64,0.00,,,0.01,meteohub,2013-08-17 00:15:00,
2013-08-16 19:20:00,77.7,64.6,30.19,East,100,8.0,12.0,64,0.00,,,0.01,meteohub,2013-08-17 00:20:00,
2013-08-16 19:25:00,77.5,64.4,30.19,East,88,8.0,12.0,64,0.00,,,0.01,meteohub,2013-08-17 00:25:00,
2013-08-16 19:30:00,77.5,64.8,30.20,ESE,109,7.0,12.0,65,0.00,,,0.01,meteohub,2013-08-17 00:30:00,
2013-08-16 19:35:00,77.4,64.8,30.20,ESE,103,8.0,12.0,65,0.00,,,0.01,meteohub,2013-08-17 00:35:00,
2013-08-16 19:40:00,77.4,65.1,30.20,ESE,103,6.0,12.0,66,0.00,,,0.01,meteohub,2013-08-17 00:40:00,
2013-08-16 19:45:00,77.2,64.6,30.20,ESE,103,11.0,11.0,65,0.00,,,0.01,meteohub,2013-08-17 00:45:00,
2013-08-16 19:50:00,77.2,64.9,30.20,East,91,15.0,15.0,66,0.00,,,0.01,meteohub,2013-08-17 00:50:00,
2013-08-16 19:55:00,76.8,64.9,30.20,East,83,9.0,13.0,67,0.00,,,0.01,meteohub,2013-08-17 00:55:00,
2013-08-16 20:00:00,76.6,65.3,30.20,ENE,78,11.0,15.0,68,0.00,,,0.01,meteohub,2013-08-17 01:00:00,
2013-08-16 20:05:00,76.3,65.3,30.20,East,96,10.0,15.0,69,0.00,,,0.01,meteohub,2013-08-17 01:05:00,
2013-08-16 20:10:00,75.9,64.6,30.20,East,86,12.0,15.0,68,0.00,,,0.01,meteohub,2013-08-17 01:10:00,
2013-08-16 20:15:00,75.7,64.8,30.20,East,91,12.0,15.0,69,0.00,,,0.01,meteohub,2013-08-17 01:15:00,
2013-08-16 20:20:00,75.6,65.1,30.21,ENE,78,6.0,17.0,70,0.00,,,0.01,meteohub,2013-08-17 01:20:00,
2013-08-16 20:25:00,75.4,64.9,30.21,ESE,103,6.0,17.0,70,0.00,,,0.01,meteohub,2013-08-17 01:25:00,
2013-08-16 20:30:00,75.4,64.9,30.21,East,99,5.0,17.0,70,0.00,,,0.01,meteohub,2013-08-17 01:30:00,
2013-08-16 20:35:00,75.0,64.9,30.21,ENE,78,7.0,15.0,71,0.00,,,0.01,meteohub,2013-08-17 01:35:00,
2013-08-16 20:40:00,74.8,64.4,30.21,East,93,13.0,13.0,70,0.00,,,0.01,meteohub,2013-08-17 01:40:00,
2013-08-16 20:45:00,74.7,64.6,30.21,East,83,10.0,13.0,71,0.00,,,0.01,meteohub,2013-08-17 01:45:00,
2013-08-16 20:50:00,74.7,64.6,30.21,East,81,10.0,15.0,71,0.00,,,0.01,meteohub,2013-08-17 01:50:00,
2013-08-16 20:55:00,74.5,64.4,30.21,East,85,8.0,15.0,71,0.00,,,0.01,meteohub,2013-08-17 01:55:00,
2013-08-16 21:00:00,74.5,64.4,30.21,East,92,8.0,14.0,71,0.00,,,0.01,meteohub,2013-08-17 02:00:00,
2013-08-16 21:05:00,74.3,64.8,30.21,East,96,9.0,14.0,72,0.00,,,0.01,meteohub,2013-08-17 02:05:00,
2013-08-16 21:10:00,74.1,64.6,30.22,East,86,8.0,15.0,72,0.00,,,0.01,meteohub,2013-08-17 02:10:00,
2013-08-16 21:15:00,74.1,64.6,30.22,ENE,78,7.0,15.0,72,0.00,,,0.01,meteohub,2013-08-17 02:15:00,
2013-08-16 21:20:00,73.9,64.4,30.22,ENE,74,6.0,13.0,72,0.00,,,0.01,meteohub,2013-08-17 02:20:00,
2013-08-16 21:25:00,73.8,64.6,30.22,East,98,11.0,13.0,73,0.00,,,0.01,meteohub,2013-08-17 02:25:00,
2013-08-16 21:30:00,73.8,64.6,30.22,East,88,9.0,13.0,73,0.00,,,0.01,meteohub,2013-08-17 02:30:00,
2013-08-16 21:35:00,73.6,64.4,30.22,ESE,105,7.0,13.0,73,0.00,,,0.01,meteohub,2013-08-17 02:35:00,
2013-08-16 21:40:00,73.6,64.8,30.23,ESE,107,9.0,12.0,74,0.00,,,0.01,meteohub,2013-08-17 02:40:00,
2013-08-16 21:45:00,73.2,64.4,30.23,ESE,118,9.0,12.0,74,0.00,,,0.01,meteohub,2013-08-17 02:45:00,
2013-08-16 21:50:00,73.2,64.4,30.23,East,93,6.0,12.0,74,0.00,,,0.01,meteohub,2013-08-17 02:50:00,
2013-08-16 21:55:00,73.0,64.2,30.23,ESE,108,10.0,13.0,74,0.00,,,0.01,meteohub,2013-08-17 02:55:00,
2013-08-16 22:00:00,73.0,64.6,30.23,East,88,9.0,13.0,75,0.00,,,0.01,meteohub,2013-08-17 03:00:00,
2013-08-16 22:05:00,72.9,64.4,30.23,ESE,110,9.0,13.0,75,0.00,,,0.01,meteohub,2013-08-17 03:05:00,
2013-08-16 22:10:00,72.7,64.8,30.23,East,90,8.0,13.0,76,0.00,,,0.01,meteohub,2013-08-17 03:10:00,
2013-08-16 22:15:00,72.7,64.8,30.23,ESE,117,6.0,13.0,76,0.00,,,0.01,meteohub,2013-08-17 03:15:00,
2013-08-16 22:20:00,72.3,64.4,30.24,East,89,6.0,13.0,76,0.00,,,0.01,meteohub,2013-08-17 03:20:00,
2013-08-16 22:25:00,72.1,64.6,30.24,East,83,5.0,11.0,77,0.00,,,0.01,meteohub,2013-08-17 03:25:00,
2013-08-16 22:31:00,72.1,64.6,30.24,East,81,5.0,11.0,77,0.00,,,0.01,meteohub,2013-08-17 03:31:00,
2013-08-16 22:36:00,72.0,64.4,30.24,ESE,102,10.0,12.0,77,0.00,,,0.01,meteohub,2013-08-17 03:36:00,
2013-08-16 22:41:00,71.8,64.2,30.24,East,96,10.0,12.0,77,0.00,,,0.01,meteohub,2013-08-17 03:41:00,
2013-08-16 22:46:00,71.8,64.2,30.24,East,88,9.0,12.0,77,0.00,,,0.01,meteohub,2013-08-17 03:46:00,
2013-08-16 22:51:00,71.6,63.7,30.24,East,82,10.0,13.0,76,0.00,,,0.01,meteohub,2013-08-17 03:51:00,
2013-08-16 22:56:00,71.4,63.5,30.24,ENE,75,9.0,14.0,76,0.00,,,0.01,meteohub,2013-08-17 03:56:00,
2013-08-16 23:01:00,71.2,63.7,30.24,East,90,8.0,16.0,77,0.00,,,0.01,meteohub,2013-08-17 04:01:00,
2013-08-16 23:02:00,71.2,63.7,30.24,East,89,7.0,16.0,77,0.00,,,0.01,meteohub,2013-08-17 04:02:00,
2013-08-16 23:07:00,71.1,63.1,30.24,East,89,9.0,16.0,76,0.00,,,0.01,meteohub,2013-08-17 04:07:00,
2013-08-16 23:12:00,71.1,63.5,30.25,East,93,9.0,16.0,77,0.00,,,0.01,meteohub,2013-08-17 04:12:00,
2013-08-16 23:17:00,70.9,63.3,30.25,East,82,8.0,14.0,77,0.00,,,0.01,meteohub,2013-08-17 04:17:00,
2013-08-16 23:22:00,70.9,63.0,30.25,ENE,68,9.0,15.0,76,0.00,,,0.01,meteohub,2013-08-17 04:22:00,
2013-08-16 23:27:00,70.5,63.0,30.25,East,91,11.0,15.0,77,0.00,,,0.01,meteohub,2013-08-17 04:27:00,
2013-08-16 23:32:00,70.5,63.0,30.25,ESE,103,10.0,15.0,77,0.00,,,0.01,meteohub,2013-08-17 04:32:00,
2013-08-16 23:37:00,70.3,62.8,30.25,ENE,58,10.0,15.0,77,0.00,,,0.01,meteohub,2013-08-17 04:37:00,
2013-08-16 23:42:00,70.3,62.8,30.25,East,88,10.0,15.0,77,0.00,,,0.01,meteohub,2013-08-17 04:42:00,
2013-08-16 23:47:00,70.3,62.4,30.25,East,96,11.0,14.0,76,0.00,,,0.01,meteohub,2013-08-17 04:47:00,
2013-08-16 23:52:00,70.2,62.2,30.26,East,100,8.0,15.0,76,0.00,,,0.01,meteohub,2013-08-17 04:52:00,
2013-08-16 23:57:00,70.2,62.2,30.25,East,91,9.0,15.0,76,0.00,,,0.01,meteohub,2013-08-17 04:57:00,